Andalusia, AL

2:26 PM CDT on August 25, 2016 (GMT -0500)
Andalusia

Weather History for K79J - April, 2014

Change the Weather History Date:

Sunday, April 6, 2014

  Actual Average (KCEW) Record (KCEW)
Temperature  
Mean Temperature 64 °F -  
Max Temperature 71 °F 75 °F 85 °F (1991)
Min Temperature 57 °F 48 °F 34 °F (1977)
Degree Days  
Heating Degree Days 1    
Growing Degree Days 14 (Base 50)    
Moisture  
Dew Point 59 °F    
Average Humidity 84    
Maximum Humidity 88    
Minimum Humidity 75    
Precipitation  
Precipitation 1.25 in - - ()
Sea Level Pressure  
Sea Level Pressure 29.93 in    
Wind  
Wind Speed 7 mph (ESE)    
Max Wind Speed 16 mph    
Max Gust Speed 21 mph    
Visibility 6 miles    
Events Fog , Rain , Thunderstorm    
Averages and records for this station are not official NWS values.
T = Trace of Precipitation, MM = Missing Value Source: NWS Daily Summary

Daily Weather History Graph

Daily Weather History Graph

Search for Another Location

Airport or City:

Trip Planner

Search our weather history database for the weather conditions in past years. The results will help you decide how hot, cold, wet, or windy it might be!

Date:

Astronomy

Apr. 06, 2014 Rise Set
Actual Time 6:28 AM CDT 7:08 PM CDT
Civil Twilight 6:03 AM CDT 7:32 PM CDT
Nautical Twilight 5:34 AM CDT 8:01 PM CDT
Astronomical Twilight 5:05 AM CDT 8:31 PM CDT
Moon 11:40 AM CDT (4/6) 12:51 AM CDT (4/6)
Length of Visible Light 13h 29m
Length of Day
12h 40m
Waxing Crescent, 44% of the Moon is Illuminated
Apr 6
Waxing Crescent
Apr 7
First Quarter
Apr 15
Full
Apr 22
Last Quarter
Apr 29
New

Hourly Weather History & Observations

Time (CDT) Temp. Dew Point Humidity Pressure Visibility Wind Dir Wind Speed Gust Speed Precip Events Conditions
12:56 AM 64.0 °F 59.0 °F 84% 29.96 in 8.0 mi NE 4.6 mph - 0.01 in   Partly Cloudy
1:38 AM 64.4 °F 59.0 °F 83% 29.99 in 8.0 mi Calm Calm - 0.00 in Rain Light Rain
1:46 AM 64.4 °F 60.8 °F 88% 29.99 in 6.0 mi Calm Calm - 0.00 in   Overcast
1:56 AM 64.0 °F 59.0 °F 84% 29.97 in 10.0 mi Calm Calm - 0.00 in   Overcast
2:56 AM 64.0 °F 60.1 °F 87% 29.94 in 8.0 mi ESE 3.5 mph - N/A   Overcast
3:56 AM 64.0 °F 57.9 °F 80% 29.91 in 10.0 mi SSE 4.6 mph - 0.00 in   Overcast
4:01 AM 64.4 °F 59.0 °F 83% 29.92 in 10.0 mi SSE 4.6 mph - N/A Thunderstorm Thunderstorm
4:29 AM 64.4 °F 60.8 °F 88% 29.91 in 9.0 mi SE 3.5 mph - N/A   Overcast
4:56 AM 64.9 °F 60.1 °F 84% 29.90 in 9.0 mi East 3.5 mph - N/A   Overcast
5:56 AM 64.0 °F 59.0 °F 84% 29.91 in 9.0 mi ESE 8.1 mph - N/A   Overcast
6:51 AM 64.4 °F 59.0 °F 83% 29.96 in 10.0 mi Calm Calm - N/A   Overcast
6:56 AM 64.9 °F 59.0 °F 81% 29.96 in 10.0 mi ENE 4.6 mph - N/A   Overcast
7:29 AM 64.4 °F 59.0 °F 83% 29.96 in 8.0 mi ENE 4.6 mph - 0.00 in   Overcast
7:56 AM 62.1 °F 57.0 °F 84% 29.95 in 6.0 mi East 8.1 mph - 0.00 in   Haze
8:04 AM 60.8 °F 55.4 °F 82% 29.95 in 4.0 mi ESE 10.4 mph 16.1 mph N/A   Haze
8:15 AM 60.8 °F 57.2 °F 88% 29.95 in 2.5 mi ESE 10.4 mph - 0.00 in Rain Light Rain
8:24 AM 60.8 °F 55.4 °F 82% 29.98 in 1.8 mi NNW 8.1 mph - 0.01 in Rain , Thunderstorm Light Thunderstorms and Rain
8:32 AM 60.8 °F 55.4 °F 82% 30.00 in 1.2 mi NNW 11.5 mph - 0.05 in Rain , Thunderstorm Thunderstorms and Rain
8:40 AM 60.8 °F 55.4 °F 82% 29.98 in 1.8 mi NNE 6.9 mph - 0.07 in Rain Rain
8:51 AM 60.8 °F 55.4 °F 82% 29.97 in 1.8 mi ENE 9.2 mph - 0.10 in Rain Heavy Rain
8:56 AM 60.1 °F 55.0 °F 83% 29.97 in 1.5 mi NE 5.8 mph - 0.14 in Rain Heavy Rain
9:04 AM 60.8 °F 55.4 °F 82% 29.98 in 1.0 mi NNE 5.8 mph - 0.09 in Rain Heavy Rain
9:15 AM 59.0 °F 55.4 °F 88% 29.98 in 0.5 mi NE 8.1 mph - 0.33 in Fog , Rain Heavy Rain
9:24 AM 59.0 °F 55.4 °F 88% 30.01 in 1.0 mi North 15.0 mph - 0.46 in Rain Heavy Rain
9:36 AM 57.2 °F 53.6 °F 88% 30.01 in 1.2 mi NNE 11.5 mph - 0.60 in Rain Heavy Rain
9:43 AM 57.2 °F 53.6 °F 88% 30.00 in 1.0 mi NE 11.5 mph 20.7 mph 0.74 in Rain Heavy Rain
9:56 AM 57.0 °F 52.0 °F 83% 29.99 in 5.0 mi ENE 8.1 mph 17.3 mph 0.77 in Rain Light Rain
10:16 AM 57.2 °F 53.6 °F 88% 30.01 in 10.0 mi NE 6.9 mph 18.4 mph 0.00 in Rain Light Rain
10:27 AM 57.2 °F 53.6 °F 88% 30.00 in 1.8 mi East 12.7 mph 18.4 mph 0.08 in Rain Heavy Rain
10:39 AM 59.0 °F 53.6 °F 82% 30.02 in 3.0 mi East 4.6 mph 16.1 mph 0.13 in Rain Rain
10:54 AM 60.8 °F 55.4 °F 82% 29.99 in 6.0 mi ESE 16.1 mph - 0.14 in Rain Light Rain
10:56 AM 60.1 °F 55.0 °F 83% 29.98 in 5.0 mi ESE 15.0 mph - 0.15 in Rain Rain
11:03 AM 60.8 °F 55.4 °F 82% 29.99 in 2.5 mi ESE 13.8 mph - 0.02 in Rain Heavy Rain
11:12 AM 60.8 °F 55.4 °F 82% 29.99 in 6.0 mi ESE 13.8 mph - 0.03 in Rain Light Rain
11:29 AM 60.8 °F 55.4 °F 82% 29.99 in 9.0 mi East 9.2 mph - 0.03 in Rain Light Rain
11:40 AM 60.8 °F 55.4 °F 82% 29.99 in 10.0 mi East 9.2 mph - 0.03 in   Overcast
11:56 AM 62.1 °F 55.9 °F 80% 29.98 in 10.0 mi ESE 12.7 mph - 0.03 in   Overcast
12:56 PM 63.0 °F 57.9 °F 84% 29.98 in 10.0 mi SE 10.4 mph - 0.00 in Rain Light Rain
1:36 PM 64.4 °F 60.8 °F 88% 29.97 in 9.0 mi SE 10.4 mph - 0.01 in Rain Light Rain
1:43 PM 66.2 °F 60.8 °F 83% 29.96 in 10.0 mi ESE 15.0 mph 19.6 mph 0.01 in Rain Light Rain
1:56 PM 68.0 °F 62.1 °F 81% 29.94 in 10.0 mi ESE 11.5 mph - 0.01 in   Overcast
2:56 PM 69.1 °F 61.0 °F 75% 29.93 in 10.0 mi East 9.2 mph - N/A   Overcast
3:56 PM 68.0 °F 61.0 °F 78% 29.90 in 10.0 mi East 8.1 mph - N/A   Overcast
4:56 PM 68.0 °F 61.0 °F 78% 29.87 in 10.0 mi SE 15.0 mph 18.4 mph N/A   Mostly Cloudy
5:56 PM 66.9 °F 60.1 °F 79% 29.83 in 10.0 mi ESE 10.4 mph - N/A   Mostly Cloudy
6:51 PM 66.2 °F 60.8 °F 83% 29.83 in 10.0 mi SE 9.2 mph - N/A   Overcast
6:56 PM 66.0 °F 60.1 °F 81% 29.83 in 10.0 mi SE 10.4 mph - N/A   Overcast
7:03 PM 66.2 °F 60.8 °F 83% 29.82 in 10.0 mi SE 12.7 mph 19.6 mph N/A   Overcast
7:26 PM 66.2 °F 60.8 °F 83% 29.82 in 10.0 mi SE 8.1 mph - 0.01 in   Overcast
7:34 PM 66.2 °F 60.8 °F 83% 29.82 in 10.0 mi SSE 9.2 mph - 0.01 in Rain Light Rain
7:49 PM 66.2 °F 60.8 °F 83% 29.83 in 10.0 mi SSE 9.2 mph - 0.02 in Rain , Thunderstorm Light Thunderstorms and Rain
7:56 PM 66.0 °F 62.1 °F 87% 29.82 in 8.0 mi SE 8.1 mph - 0.03 in Rain , Thunderstorm Light Thunderstorms and Rain
7:58 PM 66.2 °F 62.6 °F 88% 29.83 in 8.0 mi SE 9.2 mph - 0.00 in Rain Light Rain
8:38 PM 66.2 °F 62.6 °F 88% 29.84 in 4.0 mi South 4.6 mph - 0.09 in Rain Rain
8:56 PM 66.0 °F 62.1 °F 87% 29.84 in 5.0 mi Variable 4.6 mph - 0.10 in Rain Light Rain
9:05 PM 66.2 °F 62.6 °F 88% 29.84 in 6.0 mi SSE 3.5 mph - 0.00 in Rain Light Rain
9:16 PM 66.2 °F 62.6 °F 88% 29.84 in 8.0 mi SSE 3.5 mph - 0.00 in   Overcast
9:56 PM 66.9 °F 63.0 °F 87% 29.83 in 3.0 mi SSE 4.6 mph - 0.00 in   Overcast
10:09 PM 68.0 °F 64.4 °F 88% 29.84 in 2.5 mi South 5.8 mph - N/A   Overcast
10:56 PM 69.1 °F 64.9 °F 87% 29.82 in 2.0 mi South 4.6 mph - 0.01 in   Overcast
11:28 PM 71.6 °F 66.2 °F 83% 29.82 in 3.0 mi South 9.2 mph - N/A   Overcast
11:56 PM 71.1 °F 66.9 °F 87% 29.79 in 4.0 mi South 8.1 mph - 0.00 in Rain Light Rain